| time (UTC) | temp F | wind direction | speed MPH | gust MPH | rain 1hr in | rain 24hr in | rain mn in | humidity % | barometer mb |
| 20260510095058 | 72 | 88 | 0.0 | 2.0 | 0.00 | 0.15 | 0.00 | 100 | 992.7 |
| 20260510094058 | 71 | 0 | 0.0 | 2.0 | 0.00 | 0.15 | 0.00 | 100 | 992.8 |
| 20260510093044 | 71 | 0 | 0.0 | 1.0 | 0.00 | 0.15 | 0.00 | 100 | 993.0 |
| 20260510092045 | 71 | 0 | 0.0 | 0.0 | 0.00 | 0.15 | 0.00 | 100 | 992.9 |
| 20260510091044 | 71 | 0 | 0.0 | 1.0 | 0.00 | 0.15 | 0.00 | 100 | 992.8 |
| 20260510090044 | 71 | 0 | 0.0 | 1.0 | 0.00 | 0.15 | 0.00 | 99 | 992.0 |
| 20260510085044 | 71 | 0 | 0.0 | 1.0 | 0.00 | 0.15 | 0.00 | 99 | 991.5 |
| 20260510084045 | 71 | 0 | 0.0 | 1.0 | 0.00 | 0.15 | 0.00 | 99 | 991.9 |
| 20260510083045 | 72 | 0 | 0.0 | 2.0 | 0.00 | 0.15 | 0.00 | 99 | 991.8 |
| 20260510082044 | 72 | 65 | 1.0 | 2.0 | 0.00 | 0.15 | 0.00 | 99 | 992.2 |
| 20260510081043 | 72 | 0 | 0.0 | 2.0 | 0.00 | 0.15 | 0.00 | 99 | 992.8 |
| 20260510080044 | 71 | 176 | 0.0 | 1.0 | 0.00 | 0.15 | 0.00 | 99 | 992.8 |
| 20260510075044 | 71 | 274 | 0.0 | 3.0 | 0.00 | 0.15 | 0.00 | 99 | 992.5 |
| 20260510074043 | 71 | 54 | 0.0 | 1.0 | 0.00 | 0.15 | 0.00 | 99 | 992.2 |
| 20260510073044 | 71 | 0 | 0.0 | 1.0 | 0.00 | 0.15 | 0.00 | 99 | 992.3 |
| 20260510072043 | 71 | 39 | 0.0 | 1.0 | 0.00 | 0.15 | 0.00 | 99 | 991.9 |
| 20260510071044 | 71 | 0 | 0.0 | 1.0 | 0.00 | 0.15 | 0.00 | 99 | 990.7 |
| 20260510070040 | 71 | 0 | 1.0 | 3.0 | 0.00 | 0.15 | 0.00 | 99 | 991.4 |
| 20260510065041 | 71 | 0 | 0.0 | 1.0 | 0.00 | 0.15 | 0.00 | 99 | 990.9 |
| 20260510064040 | 71 | 0 | 0.0 | 1.0 | 0.00 | 0.15 | 0.00 | 99 | 990.7 |
| 20260510063041 | 71 | 0 | 0.0 | 1.0 | 0.00 | 0.15 | 0.00 | 99 | 991.1 |
| 20260510062525 | 71 | 0 | 0.0 | 2.0 | 0.00 | 0.15 | 0.00 | 99 | 991.2 |
| 20260510061532 | 71 | 0 | 0.0 | 2.0 | 0.00 | 0.15 | 0.00 | 99 | 991.7 |
| 20260510060520 | 71 | 0 | 1.0 | 3.0 | 0.00 | 0.15 | 0.00 | 99 | 992.0 |
| 20260510055039 | 71 | 110 | 1.0 | 4.0 | 0.00 | 0.15 | 0.00 | 99 | 992.3 |
| 20260510054038 | 71 | 170 | 1.0 | 4.0 | 0.00 | 0.15 | 0.00 | 99 | 992.5 |
| 20260510053038 | 71 | 0 | 0.0 | 2.0 | 0.00 | 0.15 | 0.00 | 99 | 992.8 |
| 20260510052525 | 71 | 200 | 1.0 | 2.0 | 0.00 | 0.15 | 0.00 | 99 | 993.2 |
| 20260510051052 | 71 | 87 | 1.0 | 3.0 | 0.00 | 0.15 | 0.00 | 99 | 993.4 |
| 20260510050038 | 71 | 183 | 0.0 | 3.0 | 0.00 | 0.15 | 0.00 | 98 | 993.0 |
| 20260510045039 | 71 | 0 | 0.0 | 1.0 | 0.00 | 0.15 | 0.00 | 98 | 992.8 |
| 20260510043036 | 71 | 0 | 0.0 | 1.0 | 0.00 | 0.15 | 0.00 | 98 | 992.4 |
| 20260510042037 | 71 | 0 | 0.0 | 2.0 | 0.00 | 0.15 | 0.00 | 98 | 992.1 |
| 20260510041037 | 71 | 0 | 0.0 | 1.0 | 0.00 | 0.18 | 0.00 | 98 | 992.2 |
| 20260510040036 | 71 | 11 | 0.0 | 1.0 | 0.00 | 0.19 | 0.00 | 98 | 992.2 |
| 20260510035037 | 71 | 0 | 0.0 | 2.0 | 0.00 | 0.19 | 0.19 | 98 | 992.6 |
| 20260510034037 | 71 | 0 | 0.0 | 2.0 | 0.00 | 0.20 | 0.19 | 98 | 992.8 |
| 20260510033515 | 71 | 143 | 0.0 | 2.0 | 0.00 | 0.24 | 0.19 | 98 | 992.9 |
| 20260510032206 | 71 | 179 | 1.0 | 2.0 | 0.00 | 0.42 | 0.19 | 98 | 993.1 |
| 20260510031021 | 72 | 61 | 0.0 | 2.0 | 0.00 | 0.45 | 0.19 | 98 | 992.8 |
| 20260510030020 | 72 | 159 | 1.0 | 3.0 | 0.00 | 0.50 | 0.19 | 98 | 993.0 |
| 20260510025021 | 72 | 173 | 2.0 | 3.0 | 0.00 | 0.52 | 0.19 | 98 | 993.1 |
| 20260510024020 | 72 | 0 | 0.0 | 1.0 | 0.00 | 0.57 | 0.19 | 98 | 992.5 |
| 20260510023020 | 72 | 354 | 1.0 | 2.0 | 0.00 | 0.57 | 0.19 | 97 | 992.1 |
| 20260510022021 | 72 | 0 | 0.0 | 2.0 | 0.00 | 0.57 | 0.19 | 97 | 992.3 |
| 20260510021021 | 72 | 0 | 0.0 | 1.0 | 0.00 | 0.57 | 0.19 | 97 | 992.3 |
| 20260510020018 | 72 | 63 | 1.0 | 2.0 | 0.00 | 0.57 | 0.19 | 97 | 992.0 |
| 20260510015017 | 72 | 19 | 1.0 | 3.0 | 0.00 | 0.57 | 0.19 | 97 | 991.9 |
| 20260510014016 | 72 | 63 | 1.0 | 2.0 | 0.00 | 0.57 | 0.19 | 97 | 991.9 |
| 20260510012016 | 72 | 0 | 0.0 | 1.0 | 0.00 | 0.57 | 0.19 | 97 | 991.4 |
| 20260510011453 | 72 | 0 | 0.0 | 2.0 | 0.00 | 0.57 | 0.19 | 97 | 991.3 |
| 20260510010016 | 72 | 134 | 1.0 | 2.0 | 0.00 | 0.57 | 0.19 | 96 | 991.6 |
| 20260510005016 | 72 | 0 | 0.0 | 2.0 | 0.00 | 0.57 | 0.19 | 96 | 991.6 |
| 20260510004016 | 72 | 0 | 0.0 | 2.0 | 0.00 | 0.57 | 0.19 | 96 | 991.6 |
| 20260510003017 | 72 | 0 | 0.0 | 2.0 | 0.00 | 0.58 | 0.19 | 96 | 991.6 |
| 20260510002014 | 72 | 329 | 0.0 | 1.0 | 0.00 | 0.68 | 0.19 | 96 | 991.7 |
| 20260510001015 | 72 | 252 | 0.0 | 1.0 | 0.00 | 0.68 | 0.19 | 96 | 991.8 |
| 20260510000455 | 72 | 0 | 0.0 | 1.0 | 0.00 | 0.68 | 0.19 | 96 | 991.7 |
| 20260509235014 | 72 | 0 | 0.0 | 2.0 | 0.00 | 0.68 | 0.19 | 95 | 991.5 |
| 20260509234015 | 72 | 0 | 1.0 | 3.0 | 0.00 | 0.68 | 0.19 | 95 | 991.7 |
| 20260509233012 | 72 | 36 | 2.0 | 3.0 | 0.00 | 0.68 | 0.19 | 95 | 991.6 |
| 20260509232011 | 72 | 26 | 2.0 | 4.0 | 0.00 | 0.68 | 0.19 | 95 | 991.6 |
| 20260509231458 | 72 | 10 | 2.0 | 4.0 | 0.00 | 0.68 | 0.19 | 95 | 991.6 |
| 20260509230011 | 73 | 56 | 2.0 | 3.0 | 0.00 | 0.68 | 0.19 | 95 | 991.7 |
| 20260509225012 | 72 | 38 | 2.0 | 4.0 | 0.00 | 0.68 | 0.19 | 95 | 991.8 |
| 20260509224012 | 72 | 56 | 3.0 | 6.0 | 0.00 | 0.68 | 0.19 | 95 | 991.6 |
| 20260509223012 | 72 | 34 | 2.0 | 5.0 | 0.00 | 0.68 | 0.19 | 95 | 992.1 |
| 20260509222012 | 73 | 18 | 2.0 | 5.0 | 0.00 | 0.68 | 0.19 | 95 | 992.3 |
| 20260509221503 | 73 | 50 | 3.0 | 8.0 | 0.00 | 0.68 | 0.19 | 95 | 992.3 |
| 20260509215009 | 73 | 16 | 4.0 | 9.0 | 0.00 | 0.68 | 0.19 | 95 | 992.0 |
| 20260509214009 | 73 | 25 | 4.0 | 7.0 | 0.00 | 0.68 | 0.19 | 95 | 991.7 |
| 20260509213010 | 73 | 19 | 4.0 | 7.0 | 0.00 | 0.68 | 0.19 | 94 | 992.1 |
| 20260509212010 | 73 | 54 | 3.0 | 6.0 | 0.00 | 0.68 | 0.19 | 94 | 991.7 |
| 20260509211010 | 73 | 10 | 4.0 | 11.0 | 0.00 | 0.68 | 0.18 | 94 | 991.6 |
| 20260509210021 | 73 | 0 | 3.0 | 8.0 | 0.00 | 0.68 | 0.18 | 94 | 991.7 |
| 20260509205009 | 74 | 14 | 3.0 | 8.0 | 0.00 | 0.68 | 0.18 | 94 | 992.1 |
| 20260509204441 | 75 | 12 | 2.0 | 4.0 | 0.00 | 0.68 | 0.18 | 94 | 993.0 |
| 20260509203441 | 75 | 42 | 2.0 | 4.0 | 0.10 | 0.68 | 0.18 | 94 | 993.3 |
| 20260509202009 | 75 | 343 | 1.0 | 4.0 | 0.11 | 0.68 | 0.18 | 94 | 993.3 |
| 20260509201009 | 75 | 3 | 1.0 | 3.0 | 0.13 | 0.67 | 0.18 | 94 | 993.1 |
| 20260509200009 | 75 | 71 | 1.0 | 2.0 | 0.14 | 0.67 | 0.18 | 93 | 992.5 |
| 20260509195009 | 75 | 351 | 2.0 | 5.0 | 0.14 | 0.67 | 0.18 | 92 | 992.0 |
| 20260509194007 | 76 | 55 | 3.0 | 9.0 | 0.14 | 0.67 | 0.18 | 90 | 991.2 |
| 20260509193007 | 78 | 211 | 2.0 | 5.0 | 0.04 | 0.58 | 0.08 | 82 | 991.0 |
| 20260509192005 | 80 | 30 | 1.0 | 3.0 | 0.03 | 0.57 | 0.07 | 80 | 991.1 |
| 20260509191019 | 80 | 273 | 1.0 | 3.0 | 0.00 | 0.54 | 0.04 | 77 | 992.2 |
| 20260509190452 | 80 | 12 | 1.0 | 4.0 | 0.00 | 0.54 | 0.04 | 76 | 991.8 |
| 20260509185034 | 81 | 256 | 1.0 | 3.0 | 0.00 | 0.54 | 0.04 | 74 | 994.3 |
| 20260509184449 | 82 | 278 | 2.0 | 6.0 | 0.00 | 0.54 | 0.04 | 74 | 995.0 |
| 20260509183003 | 82 | 199 | 2.0 | 6.0 | 0.00 | 0.54 | 0.04 | 72 | 998.0 |
| 20260509182449 | 82 | 217 | 1.0 | 3.0 | 0.00 | 0.54 | 0.04 | 71 | 1001.2 |
| 20260509181449 | 82 | 0 | 1.0 | 4.0 | 0.00 | 0.54 | 0.04 | 72 | 1001.3 |
| 20260509180442 | 82 | 48 | 2.0 | 4.0 | 0.00 | 0.54 | 0.04 | 74 | 1002.3 |
| 20260509175000 | 82 | 59 | 2.0 | 5.0 | 0.00 | 0.54 | 0.04 | 73 | 1005.1 |
| 20260509174001 | 81 | 357 | 2.0 | 4.0 | 0.00 | 0.54 | 0.04 | 75 | 1002.2 |
| 20260509173001 | 82 | 6 | 2.0 | 4.0 | 0.00 | 0.54 | 0.04 | 75 | 1001.1 |
| 20260509172445 | 82 | 241 | 1.0 | 3.0 | 0.00 | 0.54 | 0.04 | 75 | 1001.7 |
| 20260509171001 | 81 | 0 | 1.0 | 3.0 | 0.00 | 0.54 | 0.04 | 76 | 1002.6 |
| 20260509165958 | 80 | 263 | 1.0 | 3.0 | 0.00 | 0.54 | 0.04 | 78 | 1003.1 |
| 20260509164958 | 79 | 29 | 2.0 | 4.0 | 0.00 | 0.54 | 0.04 | 79 | 999.9 |
| 20260509163959 | 79 | 120 | 1.0 | 4.0 | 0.00 | 0.54 | 0.04 | 78 | 1001.4 |
| 20260509162959 | 78 | 120 | 2.0 | 5.0 | 0.00 | 0.54 | 0.04 | 80 | 1001.4 |
| 20260509161959 | 78 | 243 | 2.0 | 5.0 | 0.00 | 0.54 | 0.04 | 81 | 1000.3 |
| 20260509160959 | 78 | 322 | 1.0 | 3.0 | 0.00 | 0.54 | 0.04 | 81 | 1001.4 |
| 20260509155959 | 77 | 211 | 1.0 | 3.0 | 0.00 | 0.54 | 0.04 | 82 | 998.3 |
| 20260509154958 | 76 | 87 | 2.0 | 4.0 | 0.00 | 0.54 | 0.04 | 82 | 996.5 |
| 20260509153958 | 77 | 61 | 2.0 | 4.0 | 0.00 | 0.54 | 0.04 | 81 | 996.0 |
| 20260509152958 | 77 | 343 | 2.0 | 4.0 | 0.00 | 0.54 | 0.04 | 81 | 996.7 |
| 20260509151958 | 78 | 34 | 2.0 | 4.0 | 0.00 | 0.54 | 0.04 | 80 | 997.9 |
| 20260509150957 | 78 | 43 | 2.0 | 5.0 | 0.00 | 0.54 | 0.04 | 81 | 1000.6 |
| 20260509145958 | 77 | 40 | 2.0 | 5.0 | 0.00 | 0.54 | 0.04 | 81 | 1002.8 |
| 20260509145432 | 77 | 354 | 1.0 | 3.0 | 0.00 | 0.54 | 0.04 | 81 | 1000.5 |
| 20260509143958 | 76 | 32 | 1.0 | 3.0 | 0.00 | 0.54 | 0.04 | 81 | 999.5 |
| 20260509142957 | 76 | 0 | 1.0 | 4.0 | 0.00 | 0.54 | 0.04 | 81 | 998.3 |
| 20260509141955 | 76 | 15 | 2.0 | 4.0 | 0.00 | 0.54 | 0.04 | 81 | 998.7 |
| 20260509140954 | 76 | 32 | 1.0 | 3.0 | 0.00 | 0.54 | 0.04 | 82 | 1001.1 |
| 20260509135955 | 75 | 288 | 2.0 | 4.0 | 0.00 | 0.54 | 0.04 | 83 | 1000.1 |
| 20260509134954 | 75 | 52 | 1.0 | 2.0 | 0.00 | 0.54 | 0.04 | 84 | 997.5 |
| 20260509133955 | 74 | 248 | 1.0 | 2.0 | 0.00 | 0.54 | 0.04 | 85 | 997.3 |
| 20260509132955 | 74 | 347 | 1.0 | 2.0 | 0.00 | 0.54 | 0.04 | 85 | 995.6 |
| 20260509131953 | 73 | 350 | 1.0 | 2.0 | 0.00 | 0.54 | 0.04 | 86 | 995.5 |
| 20260509131429 | 73 | 0 | 1.0 | 3.0 | 0.00 | 0.54 | 0.04 | 87 | 994.9 |
| 20260509125950 | 73 | 51 | 2.0 | 4.0 | 0.00 | 0.54 | 0.04 | 87 | 994.7 |
| 20260509124949 | 73 | 52 | 2.0 | 3.0 | 0.00 | 0.54 | 0.04 | 88 | 994.7 |
| 20260509123949 | 72 | 56 | 2.0 | 4.0 | 0.00 | 0.54 | 0.04 | 88 | 994.6 |
| 20260509122950 | 72 | 46 | 2.0 | 8.0 | 0.00 | 0.54 | 0.04 | 88 | 994.3 |
| 20260509122429 | 73 | 0 | 2.0 | 5.0 | 0.00 | 0.54 | 0.04 | 88 | 993.9 |
| 20260509120950 | 73 | 136 | 1.0 | 2.0 | 0.00 | 0.54 | 0.04 | 89 | 994.2 |
| 20260509115948 | 73 | 18 | 1.0 | 3.0 | 0.00 | 0.54 | 0.04 | 90 | 994.5 |
| 20260509114949 | 72 | 292 | 1.0 | 3.0 | 0.00 | 0.54 | 0.04 | 90 | 993.9 |
| 20260509113949 | 71 | 354 | 1.0 | 2.0 | 0.00 | 0.54 | 0.04 | 91 | 992.6 |
| 20260509112949 | 71 | 0 | 0.0 | 2.0 | 0.00 | 0.54 | 0.04 | 92 | 990.8 |
| 20260509112425 | 70 | 265 | 1.0 | 4.0 | 0.00 | 0.54 | 0.04 | 92 | 990.2 |
| 20260509110949 | 70 | 19 | 1.0 | 3.0 | 0.00 | 0.54 | 0.04 | 92 | 989.4 |
| 20260509105949 | 70 | 3 | 2.0 | 6.0 | 0.00 | 0.54 | 0.04 | 92 | 989.1 |
| 20260509104949 | 70 | 197 | 3.0 | 8.0 | 0.00 | 0.54 | 0.04 | 92 | 988.5 |
| 20260509103945 | 69 | 203 | 3.0 | 8.0 | 0.00 | 0.54 | 0.04 | 92 | 988.0 |
| 20260509102945 | 69 | 221 | 4.0 | 8.0 | 0.00 | 0.54 | 0.04 | 93 | 987.8 |
| 20260509101945 | 69 | 129 | 4.0 | 8.0 | 0.00 | 0.54 | 0.04 | 94 | 987.7 |
| 20260509100946 | 69 | 183 | 4.0 | 9.0 | 0.00 | 0.54 | 0.04 | 94 | 987.8 |
| 20260509100426 | 68 | 183 | 4.0 | 9.0 | 0.00 | 0.54 | 0.04 | 95 | 987.7 |